User: anonymous
Location: Hickory_CSC
(35.7330°N, 81.3330°W)
Time: 14:51:02
(UTC-04:00)
Language:

Cosmos 1356 Rocket - Orbit

View from above orbital plane
View from above orbital plane
View from above satellite
View from above satellite

Ground track
Ground track

The orbit data is extracted from the following two-line orbital elements,

1 13154U 82039B   14245.08942007  .00000749  00000-0  63422-4 0  3795
2 13154 081.1841 299.8106 0041577 007.4761 352.7067 14.96218782751206
Epoch (UTC): 02 September 2014 02:08:45
Eccentricity: 0.0041577
inclination: 81.1841°
perigee height: 549 km
apogee height: 607 km
right ascension of ascending node: 299.8106°
argument of perigee: 7.4761°
revolutions per day: 14.96218782
mean anomaly at epoch: 352.7067°
orbit number at epoch: 75120

The dashed part of the orbit path shows where the satellite is in the earth's shadow,  

DLR